Regional Weather Roundup
Issued by NWS

Home | Current Version | Previous Version | Text Only | Print | Product List | Glossary On
Versions: 1 2 3 4 5 6 7 8 9 10 11 12 13 14 15 16 17 18 19 20 21 22 23 24 25 26 27 28 29 30 31 32 33 34 35 36 37 38 39 40 41 42 43 44 45 46 47 48 49 50
000
ASHW40 PHFO 271343
RWRHI

WEATHER ROUNDUP FOR HAWAII
NATIONAL WEATHER SERVICE HONOLULU HI
300 AM HST WED AUG 27 2014

THIS IS AN AUTOMATED REPORT THAT HAS NOT BEEN QUALITY CONTROLLED.

NOTE..."FAIR" INDICATES FEW OR NO CLOUDS BELOW 12,000 FEET WITH NO
SIGNIFICANT WEATHER AND/OR OBSTRUCTIONS TO VISIBILITY.

* - THESE SITES REPORT LIMITED FIELDS

HIZ001>004-271400-
KAUAI-NIIHAU-

CITY           SKY/WX    TMP DP  RH WIND       PRES   REMARKS
LIHUE APT      CLOUDY    77  70  79 NE13      29.94F
PORT ALLEN*      N/A     75 N/A N/A N5          N/A
POIPU*           N/A     73 N/A N/A N5G12       N/A
PRINCEVILLE*   NOT AVBL
KOKOLE POINT*    N/A    N/A N/A N/A MISG        N/A
MOLOAA DAIRY*  NOT AVBL
WAIMEA HTS*      N/A     75  61  60 VRB2        N/A
PUU OPAE*        N/A     68  61  77 CALM        N/A
PUU LUA*       NOT AVBL
MAKAHA RIDGE*  NOT AVBL
$$

HIZ005>011-271400-
OAHU-

CITY           SKY/WX    TMP DP  RH WIND       PRES   REMARKS
HONOLULU       PTCLDY    78  67  68 NE10      29.91F
KALAELOA       CLEAR     73  67  81 E3        29.92F
KANEOHE MCB    CLEAR     73  68  83 E9        29.92
WHEELER FIELD  FAIR      69  65  85 W5        29.93F
BELLOWS*         N/A    N/A N/A N/A NE14        N/A
KAHUKU*          N/A    N/A N/A N/A E7          N/A
WHEELER*       NOT AVBL
WAIANAE HARBOR NOT AVBL
DILLINGHAM*      N/A     70  66  88 E2          N/A
KAHUKU TRN*      N/A     73  68  83 E8G16       N/A
KAWAILOA*      NOT AVBL
KII*             N/A     79  70  73 E13G18      N/A
MAKUA RANGE*     N/A     77  64  65 E5G15       N/A
OAHU FOREST NW   N/A     66  66 100 N20G29      N/A
SCHOFIELD BRK*   N/A     70  64  83 W1          N/A
SCHOFIELD S*   NOT AVBL
WAIANAE VLY*     N/A     73  63  68 NE13G29     N/A
KUAOKALA*        N/A     73  64  73 CALM        N/A
HONOULIUULI*   NOT AVBL
MOKUOLOE IS*     N/A    N/A N/A N/A MISG        N/A
PALEHUA*         N/A     79  66  65 CALM        N/A
WAIAWA PHB*    NOT AVBL
$$

HIZ012>013-271400-
MOLOKAI-

CITY           SKY/WX    TMP DP  RH WIND       PRES   REMARKS
MOLOKAI AIRPT  PTCLDY    74  71  91 VRB3      29.92F
KALAUPAPA      NOT AVBL
MAKAPULAPAI*     N/A     77  68  73 E14G20      N/A
MOLOKAI 1*       N/A     66  57  72 E7G22       N/A
PUU ALII*        N/A     58  56  92 E3G12       N/A
$$

HIZ016-271400-
KAHOOLAWE-

CITY           SKY/WX    TMP DP  RH WIND       PRES   REMARKS
KAHOOLAWE*       N/A     68 N/A N/A E8G14       N/A
HAKIOAWA*      NOT AVBL
HONOKANAIA*      N/A     78  68  72 NE12G23     N/A
KANELOA*         N/A     75  66  73 NE12G25     N/A
KEALIALALO*    NOT AVBL
LUA MAKIKA*    NOT AVBL
$$

HIZ014>015-271400-
LANAI-

CITY           SKY/WX    TMP DP  RH WIND       PRES   REMARKS
LANAI CITY     FAIR      71  66  84 NE15      29.95F
LANAI 1*         N/A     72  72 100 NE16G26     N/A
$$

HIZ017>028-271400-
MAUI-

CITY           SKY/WX    TMP DP  RH WIND       PRES   REMARKS
KAHULUI        CLOUDY    77  67  71 NE12      29.90F
KAPALUA-W MAUI NOT AVBL
HANA AIRPORT   PTCLDY    70  68  94 CALM      29.94S
HANA*            N/A     72 N/A N/A S3          N/A
HALEAKALA SUMM   N/A     48   3  15 NE7G20      N/A
MAALAEA BAY*   NOT AVBL
HALEAKALA*     NOT AVBL
KAUPO GAP*       N/A     57  52  82 N3G16       N/A
KULA 1*          N/A     50  38  62 NE3         N/A
$$

HIZ023>026-271400-
BIG ISLAND OF HAWAII COAST AND LOWER SLOPES-

CITY           SKY/WX    TMP DP  RH WIND       PRES   REMARKS
KAILUA KONA    CLEAR     74  64  71 NE6       29.85F
HILO           LGT RAIN  73  69  87 NE3       29.90F
HONOKAA*       NOT AVBL
KAWAIHAE MWT*    N/A     75 N/A N/A E3          N/A
KAWAIHAE*        N/A     75 N/A N/A NE3         N/A
SOUTH POINT*     N/A     70 N/A N/A NE12        N/A
UPOLU AIRPORT*   N/A    N/A N/A N/A E13         N/A
KAMUELA*       SUNNY     63  59  88 N17       29.99S
HAKALAU*         N/A     48  48 100 W2          N/A
KALOKO-HONOKO*   N/A     72  64  78 NE6       29.84F
PALI 2*          N/A     64  59  82 N18G26      N/A
KEALAKOMO*       N/A     77  64  65 NW13G21     N/A
KAUPULEHU*       N/A     68  59  73 S5          N/A
KAPAPALA*        N/A     63  61  93 NW2         N/A
LOWER KAHUKU*  NOT AVBL
PUHE CS*       NOT AVBL
PUHO CS*         N/A     75  65  70 E2          N/A
PTA KEAMUKU*     N/A     61  54  77 E12G26      N/A
WAIKOLOA*        N/A     72  59  64 E13G20      N/A
$$

HIZ027>028-271400-
BIG ISLAND OF HAWAII INTERIOR AND SUMMMITS-

CITY           SKY/WX    TMP DP  RH WIND       PRES   REMARKS
BRADSHAW FIELD CLOUDY    47  38  70 SE5       30.22F
MK VISITOR CEN NOT AVBL
MAUNA KEA*       N/A     43 -15   8 NW10        N/A
MAUNA LOA*       N/A     43   3  19 MISG        N/A
MAUNA LOA 1*     N/A    N/A N/A N/A MISG        N/A
PTA KIPUKA*      N/A     48  46  93 SE3         N/A
PTA RANGE 17*    N/A     54  50  87 SE7         N/A
PTA WEST*        N/A     55  52  88 S6G15       N/A
NENE CABIN*    NOT AVBL
AHUMOA*          N/A     51  40  65 E5          N/A
PTA PORTABLE*  NOT AVBL
PUU MALI*      NOT AVBL
$$

HIC003-271400-
NORTHWEST ISLANDS-

CITY           SKY/WX    TMP DP  RH WIND       PRES   REMARKS
MIDWAY ISLAND  PTCLDY    82  73  74 E20G25    30.13F
MIDWAY NOS*    NOT AVBL
FRENCH FRIGATE NOT AVBL
$$

PHZ110>124-180-271400-
BUOY REPORTS

STATION/POSITION TIME  TEMP    WIND        PRES    WAVE   SWELL
                       AIR SEA DIR/SP/G            HT/PER HT/DIR
                 (UTC) (F)     (DEG/KT/KT) (MB)    (FT/S) (FT/D)
BUOY 51001       NOT AVBL
BUOY 51101       NOT AVBL
BUOY 51100       1300   77 79   50/ 14/ 16 1013.3
BUOY 51003       1300   80 82   50/ 12/ 14 1011.9F   5/ 7   5
BUOY 51004       1243   78 80   60/  8/ 12 1010.7F   6/ 8   7/ 70
BARBERS PT BUOY  NOT AVBL
WAIMEA BAY BUOY  1300      81                N/A     4/ 9   2/ 40
KAILUA BAY BUOY  1300      81                N/A     6/11   2/ 80
LANAI BUOY       NOT AVBL
BARBERS PT 2     1300      81                N/A     4/14   3/190
PAUWELA MAUI     1300      80                N/A     5/ 9   2/ 80
HILO             NOT AVBL
KANEOHE BAY BUOY 1300      81                N/A     5/ 8   2/ 60
HANALEI KAUAI    NOT AVBL
KAHULUI HARBOR   1300   78 81   50/  8/ 14 1012.4F
HONOLULU HARBOR  1300   78      50/  4/  9 1012.8F
KILO NALU        NOT AVBL
HILO HARBOR      1300   73     170/  4/  8 1012.0F
MOKUOLOE         1300      82              1013.1F
NAWILIWILI       1300      82                N/A
WHOTS BUOY       NOT AVBL
BUOY 51028       NOT AVBL
$$

......................KEY........................................
  SKY/WX - SKY CONDITIONS/PRESENT WEATHER
  TMP    - TEMPERATURE IN FAHRENHEIT
  DWPT   - DEWPOINT IN FAHRENHEIT
  RH     - RELATIVE HUMIDITY IN PERCENT
  WIND   - DIRECTION AND SPEED /MPH FOR ISLANDS...KTS FOR BUOYS/
  PRES   - MEAN SEA LEVEL PRESSURE IN INCHES OF HG
  VSB    - VISIBILITY IN MILES
  HX     - HEAT INDEX
  WCI    - WIND CHILL INDEX
  VRB    - VARIABLE WIND DIRECTION
  N/A    - NOT AVAILABLE



USA.gov is the U.S. government's official web portal to all federal, state and local government web resources and services.